Content
SEND FEEDBACK

Daily
Averages
Monthly
Summary
United States of America

NATOMA, KANSAS


Home > North America > United States > Kansas
Elevation: 1830 feet     Latitude: 39 11N     Longitude: 099 02W

WEATHER
 
SELECT A DAY
Number of Records: 200,343;   Date Range: 1/1/95 - 12/16/14
 
SHARE

PRINT THIS DATA

[ ← Previous Day ]
WEATHER ALMANAC - JANUARY 23, 2013
[ Next Day → ]
[ °C ]   °F
Weather ElementAverageHighLow
Temperature30.8 °F48 °F (1:53 pm)19 °F (1:53 am)
Dewpoint19.9 °F26.1 °F (9:53 am)15.1 °F (1:53 am)
Humidity66.9 %89 % (5:53 am)39 % (11:53 am)
Barometer30.26 in30.40 in (10:53 pm)30.18 in (1:53 pm)
Wind Speed9.7 mph18.4 mph (5:53 pm)
Wind Gust24.2 mph (5:53 pm)
Weather ElementAverage
Visibility9.6 mi
Wind DirectionESE (100.4 °)

Weather ElementTotal
Precipitation---
Heating Degree Days31.5 (Base 65)
Averaged from 23 records on January 23, 2013
WEATHER CONDITIONS BREAKOUT
WIND DIRECTION BREAKOUT
WEATHER BY HOUR - JANUARY 23, 2013
[ °C ]   °F
Local TimeTemperatureDewpointHumidityBarometerVisibilityWind DirectionWind SpeedGust SpeedPrecipitationEventsConditions
1:53 AM19.0 °F15.1 °F85 %30.25 in10.0 miSSW (200°)5.8 mphClear
2:53 AM19.0 °F15.1 °F85 %30.23 in9.0 miSW (220°)5.8 mphClear
3:53 AM21.0 °F17.1 °F85 %30.21 in9.0 miSW (230°)10.4 mphClear
4:53 AM21.0 °F17.1 °F85 %30.19 in9.0 miSW (220°)9.2 mphClear
5:53 AM19.9 °F17.1 °F89 %30.20 in8.0 miSW (220°)9.2 mphClear
6:53 AM19.0 °F15.1 °F85 %30.22 in8.0 miSW (230°)4.6 mphClear
7:53 AM19.9 °F16.0 °F85 %30.22 in8.0 miSW (230°)6.9 mphClear
8:53 AM25.0 °F19.9 °F81 %30.21 in9.0 miWSW (240°)5.8 mphClear
9:53 AM33.1 °F26.1 °F75 %30.23 in10.0 miCalmClear
10:53 AM41.0 °F26.1 °F55 %30.22 in10.0 miCalmClear
11:53 AM46.9 °F23.0 °F39 %30.21 in10.0 miNE (50°)4.6 mphClear
12:53 PM46.9 °F24.1 °F41 %30.19 in10.0 miNNE (20°)9.2 mphClear
1:53 PM48.0 °F24.1 °F39 %30.18 in10.0 miNE (50°)12.7 mphClear
2:53 PM46.0 °F21.9 °F39 %30.19 in10.0 miNE (40°)12.7 mphClear
3:53 PM43.0 °F21.9 °F43 %30.21 in10.0 miNE (40°)10.4 mphClear
4:53 PM41.0 °F23.0 °F49 %30.25 in10.0 miNE (50°)10.4 mphClear
5:53 PM36.0 °F21.9 °F57 %30.28 in10.0 miNNE (30°)18.4 mph24.2 mphClear
6:53 PM30.9 °F21.0 °F67 %30.32 in10.0 miNE (40°)12.7 mphClear
7:53 PM30.0 °F21.0 °F69 %30.35 in10.0 miNE (40°)13.8 mphClear
8:53 PM28.0 °F19.0 °F69 %30.38 in10.0 miNE (40°)15.0 mphClear
9:53 PM26.1 °F18.0 °F71 %30.38 in10.0 miNE (40°)18.4 mph23.0 mphClear
10:53 PM25.0 °F17.1 °F72 %30.40 in10.0 miNE (40°)15.0 mph20.7 mphClear
11:53 PM23.0 °F16.0 °F74 %30.40 in10.0 miNE (40°)11.5 mphClear
Hourly data recorded from KRSL, located miles away from Natoma, Kansas







STORIES FROM OUR PARTNERS